This is the latest recevied weather packets stored in our database for station/object KB1FFS. If no packets are shown the sender has not sent any weather packets the latest 10 day(s).
| Time | Temp. | Humidity | Pressure | Rain* | Wind** | Luminosity | Snow |
|---|---|---|---|---|---|---|---|
| 1787967374 | 33.89° C | 39% | 1015.8 hPa | 0 mm | - | 0 W/m² | - |
| 1787967069 | 34.44° C | 38% | 1015.7 hPa | 0 mm | - | 0 W/m² | - |
| 1787966766 | 34.44° C | 38% | 1015.7 hPa | 0 mm | - | 0 W/m² | - |
| 1787966466 | 34.44° C | 37% | 1015.5 hPa | 0 mm | - | 0 W/m² | - |
| 1787966161 | 34.44° C | 37% | 1015.7 hPa | 0 mm | - | 0 W/m² | - |
| 1787965860 | 34.44° C | 36% | 1015.6 hPa | 0 mm | - | 0 W/m² | - |
| 1787965555 | 35° C | 37% | 1015.6 hPa | 0 mm | - | 1 W/m² | - |
| 1787965251 | 35° C | 35% | 1015.5 hPa | 0 mm | - | 2 W/m² | - |
| 1787964945 | 35.56° C | 35% | 1015.6 hPa | 0 mm | - | 4 W/m² | - |
| 1787964640 | 35.56° C | 35% | 1015.5 hPa | 0 mm | - | 6 W/m² | - |
| 1787964339 | 35.56° C | 34% | 1015.6 hPa | 0 mm | - | 9 W/m² | - |
| 1787964039 | 36.11° C | 35% | 1015.5 hPa | 0 mm | - | 13 W/m² | - |
| 1787963739 | 36.11° C | 34% | 1015.4 hPa | 0 mm | - | 16 W/m² | - |
| 1787963434 | 36.67° C | 34% | 1015.5 hPa | 0 mm | - | 20 W/m² | - |
| 1787963129 | 36.67° C | 33% | 1015.3 hPa | 0 mm | - | 24 W/m² | - |
| 1787962828 | 37.22° C | 32% | 1015.3 hPa | 0 mm | - | 28 W/m² | - |
| 1787962527 | 37.22° C | 31% | 1015.1 hPa | 0 mm | - | 33 W/m² | - |
| 1787962226 | 37.78° C | 31% | 1015.1 hPa | 0 mm | - | 37 W/m² | - |
| 1787961926 | 37.78° C | 30% | 1015.3 hPa | 0 mm | - | 41 W/m² | - |
| 1787961622 | 38.33° C | 30% | 1015 hPa | 0 mm | - | 86 W/m² | - |
| 1787961314 | 38.89° C | 30% | 1015.1 hPa | 0 mm | - | 90 W/m² | - |
| 1787961009 | 38.89° C | 30% | 1015 hPa | 0 mm | - | 101 W/m² | - |
| 1787960704 | 38.89° C | 29% | 1015.2 hPa | 0 mm | - | 111 W/m² | - |
| 1787960403 | 38.89° C | 31% | 1015.1 hPa | 0 mm | - | 128 W/m² | - |
| 1787960097 | 38.89° C | 29% | 1015.2 hPa | 0 mm | - | 134 W/m² | - |
* Rain latest hour (hover to see other rain measurements)
** Current wind speed in m/s (hover to see current wind gust speed)